Location: Kingston, Ontario, Canada
(44.2796°N, 76.5445°W)
Time: 06:12:25
(UTC-04:00)

ISS - Visible Passes

Search period start: 28 April 2017 00:00
Search period end: 08 May 2017 00:00
Orbit: 401 x 409 km, 51.6° (Epoch: 29 April)

Date Brightness Start Highest point End Pass type
(mag) Time Alt. Az. Time Alt. Az. Time Alt. Az.
04 May -1.1 05:04:20 10° SSE 05:05:51 13° SE 05:07:22 10° ESE visible
06 May -2.3 04:54:56 10° SSW 04:57:47 28° SE 05:00:38 10° ENE visible
07 May -1.6 04:04:43 14° SSE 04:05:49 16° SE 04:07:53 10° E visible
